Location: Burgwalden
(48.2830°N, 10.7576°E)
Time: 01:18:33
(UTC+00:00)

CBERS-1 - Pass Details

Date: 26 September 2023
Orbit: 768 x 775 km, 98.8° (Epoch: 04 December)

Event Time Altitude Azimuth Distance (km) Brightness Sun altitude
Rises 04:06:39 0° 9° (N) 3,256 7.5 -11.1°
Reaches altitude 10° 04:09:04 10° 2° (N) 2,326 6.7 -10.7°
Maximum altitude 04:13:51 41° 294° (WNW) 1,113 4.5 -9.9°
Drops below altitude 10° 04:18:36 10° 225° (SW) 2,315 6.0 -9.1°
Enters shadow 04:20:36 - 219° (SW) 3,085 6.7 -8.8°
